Location: Observatorio Las Palmas
(29.0667°N, 110.9333°W)
Time: 17:48:25
(UTC-07:00)

Skynet4D Del rocket - Visible Passes

Search period start: 20 January 2018 00:00
Search period end: 30 January 2018 00:00
Orbit: 763 x 1291 km, 26.9° (Epoch: 19 January)

Date Brightness Start Highest point End Pass type
(mag) Time Alt. Az. Time Alt. Az. Time Alt. Az.
20 Jan 4.8 04:39:43 37° ESE 04:39:43 37° ESE 04:43:06 10° E visible
20 Jan 4.4 06:25:21 13° W 06:29:55 43° SSW 06:35:28 10° SE visible
21 Jan 3.7 05:18:36 55° SSW 05:18:54 56° S 05:24:21 10° ESE visible
22 Jan 5.9 04:11:51 18° ESE 04:11:51 18° ESE 04:13:15 10° ESE visible
22 Jan 4.4 05:57:30 23° WSW 06:00:06 37° SSW 06:05:15 10° SE visible
23 Jan 4.6 04:50:46 37° SE 04:50:46 37° SE 04:54:23 10° ESE visible
23 Jan 5.3 06:37:15 10° WSW 06:41:14 21° SSW 06:45:24 10° SSE visible
24 Jan 4.5 05:29:41 30° SSW 05:30:18 31° SSW 05:35:04 10° SE visible
25 Jan 5.8 04:22:58 18° SE 04:22:58 18° SE 04:24:27 10° SE visible
25 Jan 5.4 06:08:37 12° WSW 06:11:23 17° SSW 06:14:46 10° SSE visible
26 Jan 5.1 05:01:56 23° S 05:01:56 23° S 05:04:54 10° SSE visible
26 Jan 6.1 20:15:07 10° S 20:18:21 16° SSE 20:18:21 16° SSE visible
27 Jan 5.5 05:40:54 13° SW 05:41:30 13° SSW 05:43:56 10° S visible
27 Jan 6.1 20:54:19 10° SW 20:57:19 21° SSW 20:57:19 21° SSW visible
28 Jan 6.0 04:34:15 12° SSE 04:34:15 12° SSE 04:34:42 10° SSE visible
28 Jan 5.8 19:43:45 10° SSW 19:49:23 21° SSE 19:50:38 20° SE visible
28 Jan 6.5 21:34:47 10° SW 21:36:18 16° SW 21:36:18 16° SW visible
29 Jan 6.3 18:34:18 10° S 18:37:55 13° SSE 18:41:27 10° SE visible
29 Jan 5.3 20:23:30 10° SW 20:29:36 34° S 20:29:36 34° S visible
